sat.trackr.live / text

‹ back to catalog

STARLINK-35435

NORAD 66464 · 2025-262J

PAYLOAD ACTIVE UNKNOWN

§ Identity

Operator
Country
US
Launch date
2025-11-15
Launch site
AFETR
Launch vehicle
Mass (kg)
RCS (m²)

Purposes: comms

External: N2YO · Heavens-Above · Gunter

§ Orbital elements

Epoch: 2026-09-20T11:48:41.961312Z

Period
94.27 min
Inclination
43.0031°
Eccentricity
0.0001618
Mean motion
15.27577359 rev/d
Perigee alt
481.9 km
Apogee alt
484.2 km
Semi-major
6,861.2 km
B*
3.3126e-4
RAAN
275.6229°
Arg perigee
266.5962°
Mean anomaly
93.4705°
Rev number
4,870

§ Raw data

STARLINK-354351 66464U 25262J   26263.49215233  .00008864  00000+0  33126-3 0  99942 66464  43.0031 275.6229 0001618 266.5962  93.4705 15.27577359 48702

JSON: /api/v1/satellites/66464 · /tle

For live sub-satellite position, see the globe view (requires WebGL).

§ Visibility from observer

Set your observer location to see the next 7 days of passes ≥ 10°. The values pass through the URL so the page stays shareable.

No JS? Fill the form by hand. The geolocation button needs JavaScript.